Vorticity
25 14 15 -1 14 6 5 20 9 9 26 14 22 26 5 21 2 32 23 -52 -18 40 43 -5 19 16 3 -9 14 22 40 11 12 8 5 -5 25 0 13 6 7 13 5 24 9 7 15 17 10 4 15 9 5 4
13 18 5 2 10 3 10 8 3 12 7 7 10 26 -10 13 37 3 16 1 42 10 43 1 41 13 21 -22 13 11 4 14 11 13 8 4 2 24 -4 11 1 18 -6 5 -2 33 4 8 12 20 12 -0 -12 2
19 16 7 5 1 2 6 14 13 14 -1 16 15 12 -4 61 26 -3 -28 0 8 18 3 23 19 -2 -1 29 0 22 22 16 1 9 7 3 5 9 14 -5 17 8 12 -3 8 17 27 22 5 4 3 -0 10 10
14 7 6 7 10 6 8 7 9 5 12 17 9 14 -4 70 -7 -21 4 12 -13 -32 15 34 10 10 3 19 26 16 20 6 12 12 6 -1 4 19 14 14 10 3 7 5 3 -7 -8 -3 1 1 -1 1 8 4
-6 -3 -7 1 6 5 3 15 17 10 11 9 16 -1 37 66 -8 -8 -2 2 -18 14 22 73 12 24 1 13 4 -11 26 19 -1 1 7 4 13 8 8 19 4 8 3 2 2 5 9 4 5 10 15 11 4 -2
-1 6 2 5 5 6 7 6 25 26 17 6 20 49 47 23 24 -15 3 -0 10 -28 7 3 30 15 2 -1 -2 5 8 8 11 7 7 7 3 4 26 11 6 6 3 5 7 10 13 9 7 7 7 5 6 12
42 40 34 51 48 19 10 17 16 11 49 61 45 28 27 -29 5 7 -60 18 8 19 39 18 8 2 2 5 10 4 10 8 1 4 7 8 5 8 4 6 16 8 8 5 7 5 4 6 9 13 11 6 8 8
16 9 6 19 29 26 36 22 31 32 36 -8 46 11 -7 -11 -36 -3 24 5 22 -1 18 16 28 18 19 13 10 10 10 6 7 9 8 8 8 6 9 9 7 -0 3 4 5 6 6 10 10 9 10 11 9 10
22 23 23 28 28 27 -0 7 3 6 15 32 -24 -2 -14 -50 18 30 18 5 13 -1 -2 25 1 26 23 18 17 15 11 16 10 7 5 14 12 3 5 11 5 2 -0 6 10 13 14 11 9 9 9 9 16 22
6 3 22 23 10 32 -7 14 18 35 24 -7 16 -35 8 29 -0 12 17 6 11 4 23 19 25 13 17 12 13 18 29 4 32 14 19 4 8 4 7 11 7 -1 5 8 13 15 13 11 8 9 17 22 19 14
11 6 26 -0 7 10 5 12 25 21 11 -4 -13 -9 12 -12 1 -15 5 4 16 13 16 9 14 13 22 12 7 3 -9 6 9 20 -2 30 19 1 -0 5 7 8 9 10 11 12 13 14 19 19 19 14 10 9
16 25 14 7 8 5 8 11 13 13 6 -37 2 12 32 -33 8 11 13 9 15 10 15 18 29 20 22 11 -3 12 11 18 11 31 9 21 12 14 18 19 16 14 12 16 15 15 19 23 26 17 9 11 7 8
13 24 34 21 24 16 14 17 18 6 13 -5 -4 9 17 6 14 6 16 18 13 20 6 10 11 10 30 3 23 11 16 10 9 12 9 15 13 12 13 11 11 10 13 14 21 26 18 11 7 9 8 8 8 8
1 2 -5 3 -6 -1 -4 12 18 -6 22 2 -8 21 -5 17 14 16 11 18 5 18 41 19 14 -7 15 0 13 7 11 7 4 10 6 12 14 13 11 10 13 13 20 23 17 13 10 7 4 8 9 8 7 9
35 3 9 3 -19 10 5 4 10 7 -6 -10 -3 6 9 16 12 9 14 11 1 6 8 7 7 0 21 2 13 9 10 13 11 11 19 17 15 18 17 20 17 18 17 12 10 6 7 11 9 7 7 9 9 7
13 12 39 24 3 -2 -3 2 8 4 -5 -6 11 24 14 10 15 9 8 16 12 -3 21 9 19 15 11 14 7 14 13 11 8 10 11 12 13 16 16 22 14 10 13 10 7 9 11 5 6 7 9 7 7 8
8 8 7 15 24 31 8 5 11 -4 11 14 24 19 14 11 10 14 13 13 13 21 2 -4 15 14 19 18 14 16 9 9 15 14 16 20 23 22 16 10 8 10 10 8 10 7 5 6 9 7 6 7 8 8
39 19 14 5 15 13 20 45 -3 18 42 11 8 14 20 16 13 12 9 10 15 10 19 6 14 8 8 12 13 14 19 20 15 10 8 6 8 11 7 11 9 8 8 10 5 5 9 8 7 7 9 9 9 9
16 10 11 14 17 26 -4 21 18 20 17 13 8 13 17 13 20 18 15 21 26 25 23 4 9 22 21 14 11 9 7 6 8 15 16 15 10 10 10 7 7 10 9 1 4 12 6 6 8 9 5 5 8 8
7 8 10 16 19 32 19 29 15 7 4 3 6 6 10 3 9 9 8 9 10 11 12 27 7 6 5 5 5 9 6 10 9 10 9 10 10 11 8 7 8 5 -0 6 10 11 6 8 10 9 3 5 11 9
8 10 11 7 7 10 19 19 12 5 6 1 5 5 12 8 13 19 15 15 14 21 26 8 6 6 10 8 7 7 8 8 11 12 13 13 11 10 7 2 5 12 14 11 12 14 11 11 11 1 6 10 7 4
11 10 11 11 14 10 17 18 17 8 18 10 12 13 9 13 12 11 15 12 22 9 7 5 6 7 8 8 8 8 4 8 12 8 14 0 -3 7 6 6 9 10 2 5 12 14 12 2 3 6 8 6 4 3
9 11 11 7 5 6 4 7 7 7 16 11 12 8 11 9 8 13 16 15 13 9 9 10 12 13 14 15 16 16 14 13 8 2 5 15 15 13 16 12 15 16 18 21 15 3 2 6 7 6 4 3 6 10
11 9 7 10 22 20 13 14 15 12 14 16 19 19 19 12 16 18 19 8 10 9 9 9 10 10 11 11 12 16 20 19 16 15 13 16 19 21 20 18 18 14 8 4 4 5 6 5 3 3 8 11 12 14
9 16 7 15 6 12 14 15 12 12 7 6 8 11 13 11 9 11 8 6 8 10 12 13 13 14 15 15 13 14 13 11 12 12 9 7 8 10 13 10 7 3 3 5 7 6 5 9 11 12 12 14 14 13
17 17 16 10 8 10 13 7 8 7 8 10 11 12 15 9 10 14 6 6 7 7 7 7 7 9 10 10 10 11 11 13 13 14 14 13 11 9 8 5 3 6 6 8 11 12 11 11 13 14 14 14 15 16
19 15 14 12 12 8 10 9 9 10 10 7 5 16 10 9 11 12 8 2 3 6 8 9 8 8 7 8 9 9 9 9 9 8 8 8 8 10 12 12 14 12 11 9 9 11 12 12 12 12 12 12 13 14
15 8 4 7 8 7 6 9 11 7 9 2 11 6 14 8 -3 1 7 7 8 7 9 8 7 8 9 10 10 10 11 11 11 12 12 14 17 12 9 7 5 5 8 8 9 10 11 12 13 13 13 14 14 14
5 4 3 3 4 5 6 6 8 6 3 8 9 13 7 11 10 12 13 10 8 9 9 8 12 13 13 14 12 13 15 15 15 13 12 10 9 9 10 11 10 8 8 10 12 13 14 13 14 14 14 14 15 15
2 4 3 4 6 8 8 10 9 7 8 9 11 16 16 13 11 11 11 11 11 12 12 12 13 14 18 20 17 15 12 11 11 10 10 9 9 7 5 3 6 11 14 15 15 14 14 14 15 16 16 15 15 15
9 11 13 13 16 15 13 14 16 16 15 14 13 13 12 13 14 13 15 15 15 17 24 22 17 13 10 10 10 13 11 9 8 8 9 4 -0 4 12 15 16 15 14 14 15 15 16 16 16 16 16 16 15 15
9 7 10 11 11 12 15 14 12 12 10 10 15 12 13 19 22 23 19 18 16 14 8 10 10 10 13 8 4 8 11 7 1 -1 6 14 17 16 14 16 16 16 16 16 16 16 16 16 16 16 16 16 15 15
6 8 8 13 13 12 13 14 13 11 15 12 17 25 22 13 11 12 11 11 11 13 9 9 6 5 9 8 4 2 4 11 16 15 15 16 16 16 17 17 17 17 16 17 16 16 16 16 16 16 16 17 16 16
Height
2754 2763 2773 2784 2793 2802 2809 2817 2825 2833 2841 2852 2862 2874 2886 2898 2910 2924 2937 2951 2963 2965 2974 2983 2992 2999 3009 3014 3016 3023 3033 3036 3041 3045 3050 3053 3059 3063 3064 3065 3066 3068 3070 3072 3075 3076 3075 3072 3074 3076 3076 3074 3076 3077
2761 2768 2778 2787 2796 2804 2812 2819 2828 2836 2845 2855 2864 2875 2885 2894 2912 2929 2941 2954 2961 2965 2973 2981 2988 2997 2999 3007 3014 3019 3028 3034 3037 3037 3043 3049 3054 3058 3060 3062 3064 3065 3065 3067 3070 3069 3069 3069 3070 3069 3070 3072 3072 3072
2766 2774 2783 2791 2799 2807 2814 2821 2829 2838 2848 2857 2865 2874 2884 2894 2914 2929 2941 2949 2961 2969 2975 2977 2982 2993 2996 3004 3011 3016 3021 3029 3029 3032 3040 3046 3050 3054 3055 3058 3059 3059 3061 3064 3066 3067 3067 3066 3064 3063 3065 3068 3067 3067
2774 2781 2787 2795 2802 2809 2816 2823 2831 2839 2847 2856 2865 2874 2884 2895 2918 2922 2938 2950 2958 2964 2971 2977 2978 2986 2992 2998 3007 3013 3019 3025 3027 3032 3037 3041 3045 3049 3051 3054 3055 3057 3058 3060 3063 3063 3062 3061 3060 3061 3062 3061 3060 3061
2779 2784 2790 2796 2803 2810 2817 2824 2831 2839 2848 2857 2866 2878 2886 2903 2917 2932 2943 2951 2951 2961 2962 2943 2967 2983 2989 2998 3005 3009 3016 3020 3024 3029 3032 3037 3040 3044 3047 3049 3051 3051 3053 3054 3056 3057 3056 3057 3057 3058 3058 3057 3055 3055
2784 2787 2791 2797 2803 2810 2816 2823 2830 2838 2848 2858 2867 2879 2892 2906 2920 2932 2943 2946 2950 2952 2955 2961 2971 2980 2991 2998 3004 3009 3009 3017 3021 3024 3027 3031 3035 3039 3041 3042 3044 3046 3047 3048 3050 3050 3049 3051 3053 3052 3051 3050 3049 3048
2785 2788 2792 2795 2800 2808 2815 2822 2831 2840 2849 2858 2871 2886 2897 2914 2921 2928 2939 2940 2949 2951 2961 2966 2973 2983 2988 2994 2999 3005 3007 3011 3015 3019 3023 3028 3031 3034 3034 3034 3038 3040 3042 3043 3043 3043 3043 3044 3046 3046 3044 3042 3041 3040
2795 2798 2801 2803 2807 2813 2817 2824 2834 2846 2858 2869 2883 2898 2909 2919 2930 2931 2937 2942 2947 2956 2963 2968 2974 2983 2988 2991 2997 3000 3003 3007 3010 3014 3018 3021 3026 3027 3027 3028 3033 3034 3036 3037 3038 3037 3036 3036 3037 3037 3036 3035 3034 3032
2811 2812 2814 2817 2819 2824 2832 2839 2848 2859 2869 2880 2894 2905 2912 2923 2930 2929 2939 2947 2955 2964 2965 2969 2974 2980 2984 2987 2991 2996 3000 3004 3007 3009 3012 3018 3017 3018 3019 3024 3026 3028 3029 3030 3031 3031 3030 3029 3028 3028 3027 3027 3026 3026
2829 2830 2832 2833 2836 2843 2848 2856 2864 2872 2883 2892 2902 2908 2916 2925 2930 2938 2945 2952 2959 2963 2967 2968 2972 2976 2981 2986 2990 2996 2997 3000 3002 3004 3008 3009 3011 3013 3015 3018 3021 3020 3021 3022 3022 3023 3023 3022 3021 3020 3020 3019 3019 3019
2844 2847 2847 2851 2855 2860 2866 2872 2879 2888 2896 2905 2905 2909 2917 2925 2933 2941 2947 2955 2959 2962 2965 2967 2970 2973 2977 2982 2987 2990 2992 2995 2997 2999 3003 3002 3004 3009 3010 3012 3013 3013 3013 3013 3014 3014 3015 3014 3014 3014 3014 3014 3014 3013
2857 2860 2863 2867 2871 2876 2882 2889 2896 2901 2904 2909 2913 2922 2929 2936 2939 2942 2941 2945 2947 2953 2959 2962 2964 2969 2973 2978 2982 2986 2988 2991 2991 2994 2996 2995 3001 3003 3004 3005 3006 3006 3006 3007 3006 3006 3006 3008 3009 3009 3010 3010 3010 3010
2868 2870 2873 2877 2883 2888 2893 2899 2906 2912 2915 2921 2926 2934 2932 2938 2940 2941 2943 2947 2951 2952 2957 2962 2966 2969 2973 2977 2980 2982 2984 2986 2990 2989 2989 2992 2995 2996 2998 2999 2999 2999 2999 2999 3001 3001 3003 3003 3005 3006 3006 3006 3006 3005
2880 2882 2882 2885 2891 2895 2901 2906 2911 2916 2922 2927 2930 2934 2937 2938 2941 2942 2946 2950 2954 2956 2958 2962 2966 2971 2972 2975 2976 2978 2980 2982 2982 2983 2985 2988 2989 2990 2991 2991 2992 2993 2994 2996 2996 2998 2999 3000 3000 3001 3002 3002 3002 3001
2889 2892 2894 2897 2898 2902 2907 2912 2916 2922 2925 2929 2933 2935 2937 2941 2943 2946 2951 2954 2955 2958 2960 2963 2967 2970 2971 2973 2973 2975 2976 2976 2978 2979 2981 2983 2984 2985 2985 2987 2987 2988 2991 2991 2993 2994 2996 2996 2997 2998 2998 2997 2996 2995
2897 2899 2900 2903 2906 2909 2912 2916 2921 2925 2929 2933 2936 2937 2939 2942 2945 2947 2950 2953 2955 2957 2959 2962 2965 2967 2968 2969 2971 2971 2973 2974 2975 2977 2978 2979 2980 2980 2982 2984 2985 2987 2988 2990 2991 2992 2993 2993 2993 2994 2993 2992 2991 2990
2902 2903 2905 2908 2910 2913 2916 2919 2923 2927 2932 2935 2938 2940 2941 2944 2946 2948 2950 2952 2954 2956 2958 2960 2962 2963 2965 2966 2968 2970 2971 2973 2973 2974 2975 2976 2977 2978 2981 2983 2984 2985 2986 2987 2988 2988 2989 2989 2989 2990 2988 2987 2986 2985
2905 2907 2910 2912 2913 2915 2918 2921 2925 2929 2933 2938 2940 2942 2944 2945 2946 2948 2949 2951 2954 2955 2956 2957 2959 2960 2963 2965 2968 2969 2970 2971 2972 2973 2974 2976 2977 2979 2980 2981 2982 2983 2984 2985 2985 2985 2985 2985 2985 2984 2983 2981 2979 2977
2913 2913 2914 2916 2917 2919 2922 2925 2929 2933 2939 2942 2944 2946 2947 2947 2948 2949 2951 2952 2952 2953 2954 2956 2958 2960 2962 2965 2967 2968 2970 2971 2972 2973 2974 2975 2976 2977 2979 2979 2980 2981 2981 2981 2982 2981 2980 2980 2980 2978 2977 2975 2973 2970
2919 2920 2920 2920 2921 2921 2923 2931 2934 2938 2943 2946 2948 2949 2949 2950 2951 2951 2952 2953 2954 2955 2956 2958 2961 2963 2965 2966 2967 2969 2970 2970 2971 2972 2973 2974 2975 2976 2976 2977 2977 2977 2977 2976 2977 2976 2976 2975 2973 2971 2970 2968 2965 2962
2925 2926 2926 2927 2928 2928 2929 2934 2937 2943 2946 2948 2949 2950 2951 2951 2952 2952 2953 2954 2955 2956 2957 2961 2963 2964 2965 2966 2967 2968 2968 2969 2970 2971 2971 2972 2972 2972 2972 2972 2972 2972 2972 2971 2970 2969 2969 2968 2966 2964 2962 2959 2956 2952
2929 2930 2931 2932 2931 2933 2936 2939 2941 2944 2947 2948 2950 2951 2952 2953 2953 2954 2955 2956 2956 2958 2961 2962 2964 2964 2965 2965 2966 2966 2966 2966 2967 2967 2967 2967 2968 2968 2967 2967 2966 2966 2965 2964 2964 2963 2961 2960 2958 2955 2953 2950 2946 2943
2933 2933 2933 2933 2934 2938 2943 2944 2946 2946 2948 2950 2952 2953 2954 2954 2955 2956 2956 2958 2959 2960 2961 2962 2963 2963 2963 2962 2962 2962 2963 2963 2963 2964 2963 2963 2963 2963 2962 2962 2961 2959 2958 2957 2956 2955 2954 2952 2949 2947 2944 2940 2937 2933
2935 2935 2934 2936 2939 2943 2946 2946 2948 2948 2950 2951 2953 2954 2955 2956 2958 2957 2958 2959 2960 2961 2961 2960 2960 2961 2960 2960 2959 2959 2959 2959 2959 2959 2958 2958 2957 2956 2956 2955 2955 2954 2953 2951 2949 2948 2946 2943 2940 2937 2934 2930 2926 2922
2938 2939 2942 2943 2945 2948 2949 2950 2951 2952 2953 2955 2956 2957 2958 2958 2958 2959 2960 2961 2960 2960 2960 2960 2959 2959 2959 2958 2957 2956 2956 2956 2955 2955 2954 2954 2953 2952 2951 2950 2949 2948 2946 2944 2942 2939 2936 2933 2930 2927 2923 2919 2914 2910
2939 2944 2948 2949 2950 2952 2953 2954 2955 2956 2957 2958 2958 2959 2959 2960 2960 2960 2961 2961 2961 2961 2960 2959 2959 2958 2957 2956 2955 2954 2953 2952 2951 2950 2950 2949 2948 2946 2945 2945 2943 2940 2938 2936 2933 2930 2927 2923 2919 2916 2911 2907 2903 2900
2945 2950 2952 2953 2954 2955 2955 2956 2958 2958 2957 2959 2960 2959 2960 2961 2960 2961 2960 2960 2960 2959 2958 2957 2956 2955 2954 2953 2952 2951 2950 2948 2947 2946 2945 2943 2942 2940 2939 2936 2934 2931 2929 2926 2922 2919 2915 2912 2909 2905 2901 2897 2893 2889
2951 2954 2955 2958 2958 2959 2959 2959 2960 2960 2960 2960 2960 2960 2960 2960 2960 2960 2959 2958 2957 2957 2955 2954 2953 2951 2950 2949 2947 2946 2944 2943 2941 2939 2938 2936 2935 2933 2930 2928 2926 2923 2919 2916 2913 2909 2906 2902 2898 2894 2890 2887 2883 2880
2956 2958 2960 2960 2961 2961 2961 2961 2961 2960 2960 2959 2959 2958 2958 2957 2956 2955 2954 2954 2952 2951 2951 2949 2948 2947 2945 2943 2941 2940 2938 2937 2935 2933 2930 2927 2925 2924 2922 2919 2916 2913 2909 2906 2901 2898 2894 2890 2887 2883 2880 2876 2873 2870
2960 2961 2961 2961 2961 2961 2961 2960 2959 2958 2957 2957 2956 2955 2954 2953 2952 2951 2950 2949 2948 2946 2945 2944 2942 2940 2939 2938 2937 2935 2933 2931 2929 2927 2925 2922 2919 2916 2913 2909 2906 2902 2898 2894 2891 2887 2883 2880 2876 2873 2869 2866 2863 2860
2960 2961 2961 2960 2960 2959 2958 2957 2956 2955 2954 2953 2952 2951 2950 2949 2947 2946 2945 2944 2942 2940 2940 2939 2937 2936 2935 2933 2931 2930 2929 2926 2924 2921 2918 2914 2911 2907 2903 2898 2894 2890 2886 2883 2879 2875 2872 2868 2865 2862 2859 2856 2853 2851
2961 2960 2959 2958 2958 2957 2956 2955 2954 2952 2950 2949 2949 2948 2946 2945 2944 2942 2941 2940 2939 2938 2937 2936 2935 2933 2932 2930 2928 2925 2922 2919 2916 2913 2909 2905 2901 2896 2891 2887 2883 2879 2875 2871 2868 2864 2861 2858 2855 2852 2849 2847 2844 2842
2960 2959 2958 2957 2956 2955 2954 2953 2950 2949 2948 2947 2945 2944 2943 2942 2941 2941 2939 2938 2938 2936 2935 2933 2931 2929 2927 2924 2922 2919 2915 2911 2906 2902 2898 2894 2890 2885 2881 2877 2873 2869 2865 2861 2858 2854 2851 2848 2845 2842 2840 2838 2835 2833